Sandy, OR (97055)

3:59 AM PDT on April 27, 2017 (GMT -0700)
Sandy City Center | | Change Station

Elev 948 ft 45.40 °N, 122.27 °W | Updated 5 seconds ago

Rain
Rain
41.2 °F
Feels Like 41 °F
N
2.5
Wind Variable Wind from SW
Gusts 7.4 mph

Today
High -- | Low -- °F
--% Chance of Precip.
Yesterday
High -- | Low -- °F
Precip. -- in
Pressure 30.12 in
Visibility 10.0 miles
Clouds Overcast 4600 ft
Windchill 41 °F
Dew Point 41 °F
Humidity 99%
Rainfall 0.00 in
Snow Depth Not available.
6:03 AM 8:11 PM
New Moon, 1% visible
METAR KTTD 271053Z AUTO 27003KT 10SM OVC046 08/05 A3012 RMK AO2 SLP199 T00780050
Pressure 30.12 in
Visibility 10.0 miles
Clouds Overcast 4600 ft
Windchill 41 °F
Dew Point 41 °F
Humidity 99%
Rainfall 0.00 in
Snow Depth Not available.
6:03 AM 8:11 PM
New Moon, 1% visible
METAR KTTD 271053Z AUTO 27003KT 10SM OVC046 08/05 A3012 RMK AO2 SLP199 T00780050

Get Severe Weather Alerts

Thanks for signing up!

Be on the lookout for a verification email in your inbox.

You'll start receiving the daily forecast at 8 AM.

×

10-Day Weather Forecast

Almanac

Astronomy

Apr. 27, 2017 Rise Set
Actual Time
Civil Twilight
Nautical Twilight
Astronomical Twilight
Moon
Length of Visible Light
Length of Day
Tomorrow will be .
, % of the Moon is Illuminated

Today's Extremes

State Highs State Lows

Community

WunderPhotos

WunderBlog® & News

Nearby

Air Quality

  Air Quality AQ Index Pollutant
Not available.

Snow Depth

Station Depth Elevation

Earthquake Activity

City Distance Mag. Time & Date
Minimum magnitude displayed is 2.5.

Coastal Water Temperatures

Place Temperature

Stations

Nearby Weather Stations

Station Location Temp. Windchill Dew Point Humidity Wind Precip. Elev Updated Type
                   

Watches & Warnings

There are currently no watches in effect.